FW2665 Weather Reports


time (UTC)temp
C
wind
direction
speed
KPH
gust
KPH
rain 1hr
cm
rain 24hr
cm
rain mn
cm
humidity
%
barometer
mb
20260901024004 21 51 4.8 9.7 0.00 0.00 0.00 80 1011.2
20260901023505 21 39 4.8 11.3 0.00 0.00 0.00 80 1011.2
20260901022504 21 55 3.2 9.7 0.00 0.00 0.00 79 1011.1
20260901022004 21 42 4.8 8.0 0.00 0.00 0.00 79 1011.1
20260901021505 22 72 3.2 9.7 0.00 0.00 0.00 78 1011.0
20260901021003 22 46 3.2 11.3 0.00 0.00 0.00 77 1011.0
20260901020504 22 42 4.8 11.3 0.00 0.00 0.00 77 1010.9
20260901020004 22 42 6.4 9.7 0.00 0.00 0.00 76 1010.9
20260901014504 23 42 4.8 8.0 0.00 0.00 0.00 74 1010.7
20260901014004 23 46 4.8 4.8 0.00 0.00 0.00 73 1010.6
20260901013506 23 22 3.2 8.0 0.00 0.00 0.00 73 1010.6
20260901013004 23 25 4.8 8.0 0.00 0.00 0.00 73 1010.6
20260901012504 23 43 4.8 8.0 0.00 0.00 0.00 73 1010.5
20260901012004 23 5 1.6 8.0 0.00 0.00 0.00 72 1010.4
20260901011506 24 39 3.2 8.0 0.00 0.00 0.00 70 1010.3
20260901005004 26 37 1.6 4.8 0.00 0.00 0.00 66 1010.2
20260901004005 26 37 3.2 4.8 0.00 0.00 0.00 62 1010.4
20260901003504 26 36 1.6 4.8 0.00 0.00 0.00 62 1010.4
20260901003004 27 36 3.2 4.8 0.00 0.00 0.00 61 1010.4
20260901002504 27 24 1.6 4.8 0.00 0.00 0.00 60 1010.3
20260901002005 27 27 1.6 4.8 0.00 0.00 0.00 59 1010.4
20260901001504 27 15 3.2 4.8 0.00 0.00 0.00 57 1010.4
20260901001004 27 29 1.6 4.8 0.00 0.00 0.00 58 1010.3
20260901000504 27 29 1.6 4.8 0.00 0.00 0.00 58 1010.4
20260831235503 28 13 1.6 4.8 0.00 0.00 0.00 56 1010.3
20260831235004 28 5 1.6 4.8 0.00 0.00 0.00 54 1010.4
20260831234005 28 13 3.2 8.0 0.00 0.00 0.00 54 1010.3
20260831233004 28 24 3.2 9.7 0.00 0.00 0.00 53 1010.4
20260831232005 28 42 3.2 12.9 0.00 0.00 0.00 51 1010.4
20260831231504 29 20 3.2 12.9 0.00 0.00 0.00 51 1010.4
20260831230504 29 10 4.8 9.7 0.00 0.00 0.00 49 1010.4
20260831230005 29 18 4.8 9.7 0.00 0.00 0.00 49 1010.4
20260831225503 30 351 4.8 9.7 0.00 0.00 0.00 48 1010.4
20260831225003 30 356 4.8 12.9 0.00 0.00 0.00 47 1010.5
20260831224503 30 53 4.8 12.9 0.00 0.00 0.00 47 1010.5
20260831224006 30 19 4.8 11.3 0.00 0.00 0.00 47 1010.5
20260831223504 30 20 4.8 11.3 0.00 0.00 0.00 46 1010.5
20260831223004 30 14 4.8 9.7 0.00 0.00 0.00 46 1010.5
20260831222005 30 12 4.8 11.3 0.00 0.00 0.00 46 1010.5
20260831221503 31 11 3.2 11.3 0.00 0.00 0.00 46 1010.5
20260831221004 31 16 4.8 9.7 0.00 0.00 0.00 45 1010.5
20260831220006 31 306 4.8 9.7 0.00 0.00 0.00 43 1010.5
20260831214006 32 338 4.8 11.3 0.00 0.00 0.00 43 1010.5
20260831213504 32 21 3.2 11.3 0.00 0.00 0.00 42 1010.5
20260831213003 32 339 4.8 14.5 0.00 0.00 0.00 43 1010.5
20260831212503 32 12 4.8 14.5 0.00 0.00 0.00 40 1010.6
20260831212005 32 321 4.8 11.3 0.00 0.00 0.00 43 1010.6
20260831211003 32 17 4.8 9.7 0.00 0.00 0.00 42 1010.7
20260831210504 32 15 4.8 9.7 0.00 0.00 0.00 41 1010.7
20260831210006 32 25 3.2 4.8 0.00 0.00 0.00 36 1010.8
20260831205504 32 300 3.2 8.0 0.00 0.00 0.00 35 1010.9
20260831204005 31 231 4.8 11.3 0.00 0.00 0.00 37 1010.9
20260831203504 31 253 6.4 11.3 0.00 0.00 0.00 40 1011.0
20260831203003 31 295 3.2 4.8 0.00 0.00 0.00 37 1011.1
20260831202504 31 227 3.2 4.8 0.00 0.00 0.00 37 1011.1
20260831202005 31 265 4.8 9.7 0.00 0.00 0.00 36 1011.2
20260831201503 31 320 4.8 16.1 0.00 0.00 0.00 36 1011.2
20260831201005 31 288 8.0 16.1 0.00 0.00 0.00 36 1011.2
20260831200005 31 284 4.8 11.3 0.00 0.00 0.00 37 1011.2
20260831195503 31 345 3.2 11.3 0.00 0.00 0.00 37 1011.2
20260831193504 31 301 8.0 16.1 0.00 0.00 0.00 41 1011.3
20260831193004 31 296 9.7 19.3 0.00 0.00 0.00 42 1011.3
20260831192504 30 298 9.7 19.3 0.00 0.00 0.00 42 1011.3
20260831192005 30 275 8.0 19.3 0.00 0.00 0.00 44 1011.3
20260831191504 30 256 11.3 19.3 0.00 0.00 0.00 43 1011.3
20260831190503 30 320 9.7 12.9 0.00 0.00 0.00 45 1011.3
20260831190005 30 336 4.8 12.9 0.00 0.00 0.00 42 1011.3
20260831185004 30 332 8.0 16.1 0.00 0.00 0.00 45 1011.2
20260831184503 30 273 9.7 16.1 0.00 0.00 0.00 47 1011.2
20260831183504 30 267 8.0 12.9 0.00 0.00 0.00 43 1011.2
20260831183004 30 275 6.4 11.3 0.00 0.00 0.00 43 1011.3
20260831182503 30 19 4.8 9.7 0.00 0.00 0.00 38 1011.3
20260831182005 30 311 4.8 9.7 0.00 0.00 0.00 40 1011.3
20260831181504 30 304 1.6 11.3 0.00 0.00 0.00 43 1011.3
20260831181004 30 298 6.4 11.3 0.00 0.00 0.00 45 1011.4
20260831180005 30 268 6.4 12.9 0.00 0.00 0.00 46 1011.3
20260831174504 29 291 3.2 9.7 0.00 0.00 0.00 51 1011.3
20260831174006 28 42 3.2 9.7 0.00 0.00 0.00 50 1011.3
20260831173504 28 326 3.2 9.7 0.00 0.00 0.00 54 1011.4
20260831173004 28 343 3.2 9.7 0.00 0.00 0.00 53 1011.4
20260831172504 28 328 4.8 9.7 0.00 0.00 0.00 59 1011.4
20260831172005 27 336 3.2 9.7 0.00 0.00 0.00 56 1011.5
20260831171004 27 282 4.8 9.7 0.00 0.00 0.00 60 1011.6
20260831170504 26 300 3.2 9.7 0.00 0.00 0.00 60 1011.6
20260831170005 26 304 4.8 11.3 0.00 0.00 0.00 62 1011.7
20260831165504 26 1 4.8 11.3 0.00 0.00 0.00 62 1011.7
20260831165003 26 326 6.4 11.3 0.00 0.00 0.00 66 1011.6
20260831164504 26 324 4.8 14.5 0.00 0.00 0.00 63 1011.6
20260831164005 26 295 8.0 14.5 0.00 0.00 0.00 67 1011.7
20260831163504 25 291 4.8 11.3 0.00 0.00 0.00 68 1011.7
20260831162504 25 317 4.8 11.3 0.00 0.00 0.00 69 1011.8
20260831162006 24 25 3.2 11.3 0.00 0.00 0.00 71 1011.8
20260831161504 24 342 6.4 12.9 0.00 0.00 0.00 72 1011.7
20260831161003 23 328 8.0 14.5 0.00 0.00 0.00 73 1011.7
20260831160505 23 347 4.8 14.5 0.00 0.00 0.00 73 1011.8
20260831160003 23 317 8.0 14.5 0.00 0.00 0.00 74 1011.7
20260831154505 21 318 4.8 12.9 0.00 0.00 0.00 78 1011.8
20260831154004 21 323 6.4 12.9 0.00 0.00 0.00 80 1011.8
20260831153504 21 320 4.8 12.9 0.00 0.00 0.00 79 1011.6
20260831153004 21 333 8.0 11.3 0.00 0.00 0.00 79 1011.5
20260831152505 21 343 8.0 16.1 0.00 0.00 0.00 79 1011.4
20260831151503 21 313 8.0 16.1 0.00 0.00 0.00 79 1011.4
20260831151005 21 324 6.4 12.9 0.00 0.00 0.00 80 1011.4
20260831150503 21 326 4.8 12.9 0.00 0.00 0.00 80 1011.3
20260831145504 20 327 6.4 14.5 0.00 0.00 0.00 82 1011.3
20260831144504 19 337 8.0 16.1 0.00 0.00 0.00 84 1011.2
20260831144004 18 330 9.7 19.3 0.00 0.00 0.00 85 1011.2
20260831143004 18 329 9.7 19.3 0.00 0.00 0.00 87 1011.1
20260831142004 17 326 14.5 19.3 0.00 0.00 0.00 89 1011.2
20260831141504 17 324 9.7 22.5 0.00 0.00 0.00 90 1011.1
20260831141004 17 322 11.3 22.5 0.00 0.00 0.00 90 1011.1
20260831140504 17 313 9.7 19.3 0.00 0.00 0.00 90 1011.0
20260831140005 17 324 9.7 16.1 0.00 0.00 0.00 91 1011.2
20260831135504 17 323 11.3 16.1 0.00 0.00 0.00 92 1011.2
20260831135004 16 316 9.7 16.1 0.00 0.00 0.00 92 1011.2
20260831134004 16 315 8.0 16.1 0.00 0.00 0.00 93 1011.0
20260831133504 16 310 8.0 16.1 0.00 0.00 0.00 93 1011.0
20260831133003 16 308 6.4 14.5 0.00 0.00 0.00 92 1010.9
20260831132504 16 312 8.0 14.5 0.00 0.00 0.00 92 1010.8
20260831132004 16 301 9.7 14.5 0.00 0.00 0.00 92 1010.7
20260831131506 16 300 8.0 14.5 0.00 0.00 0.00 92 1010.7
20260831131004 16 305 11.3 14.5 0.00 0.00 0.00 92 1010.6
20260831130504 16 295 9.7 14.5 0.00 0.00 0.00 92 1010.5
20260831130004 16 300 8.0 16.1 0.00 0.00 0.00 92 1010.4
20260831125504 16 309 9.7 16.1 0.00 0.00 0.00 92 1010.1
20260831124504 16 310 9.7 16.1 0.00 0.00 0.00 93 1010.0
20260831124004 16 295 9.7 14.5 0.00 0.00 0.00 93 1010.1
20260831123503 16 297 9.7 16.1 0.00 0.00 0.00 93 1009.9
20260831123004 16 296 8.0 16.1 0.00 0.00 0.00 93 1009.8
20260831122506 16 301 9.7 19.3 0.00 0.00 0.00 93 1009.7
20260831121505 17 291 11.3 16.1 0.00 0.00 0.00 93 1009.5
20260831120504 17 301 11.3 19.3 0.00 0.00 0.00 93 1009.2
20260831120004 17 301 14.5 19.3 0.00 0.00 0.00 93 1009.1
20260831115505 17 296 9.7 14.5 0.00 0.00 0.00 93 1009.2
20260831115004 17 288 8.0 14.5 0.00 0.00 0.00 93 1009.1
20260831114505 17 289 8.0 14.5 0.00 0.00 0.00 93 1009.0
20260831114004 17 294 8.0 19.3 0.00 0.00 0.00 93 1008.7
20260831113505 17 295 9.7 19.3 0.00 0.00 0.00 93 1008.6
20260831112505 17 306 9.7 16.1 0.00 0.00 0.00 92 1008.4
20260831111505 18 300 9.7 16.1 0.00 0.00 0.00 92 1008.5
20260831111004 18 295 9.7 14.5 0.00 0.00 0.00 92 1008.4
20260831110505 18 297 9.7 14.5 0.00 0.00 0.00 92 1008.4
20260831110003 18 298 9.7 14.5 0.00 0.00 0.00 92 1008.3
20260831105004 18 284 8.0 12.9 0.00 0.00 0.00 92 1008.3
20260831103504 19 310 8.0 14.5 0.00 0.00 0.00 92 1007.8
20260831103003 19 313 8.0 16.1 0.00 0.00 0.00 92 1007.8
20260831101504 20 292 11.3 19.3 0.00 0.00 0.00 92 1007.6
20260831101005 20 292 11.3 19.3 0.00 0.00 0.00 92 1007.6
20260831100504 20 279 9.7 11.3 0.00 0.00 0.00 92 1007.5
20260831100004 20 296 3.2 4.8 0.00 0.00 0.00 92 1007.3
20260831095004 20 296 4.8 4.8 0.00 0.00 0.00 90 1007.2
20260831094506 21 296 3.2 4.8 0.00 0.00 0.00 90 1007.1
20260831094003 21 346 3.2 4.8 0.00 0.00 0.00 91 1006.8
20260831093504 21 346 3.2 8.0 0.00 0.00 0.00 92 1006.6
20260831093004 21 342 3.2 8.0 0.00 0.00 0.00 91 1006.5
20260831092004 21 353 4.8 8.0 0.00 0.00 0.00 91 1006.2
20260831091004 22 14 3.2 4.8 0.00 0.00 0.00 91 1006.2
20260831090505 22 0 3.2 11.3 0.00 0.00 0.00 91 1006.1
20260831090004 22 7 4.8 11.3 0.00 0.00 0.00 91 1006.2
20260831085506 22 11 4.8 14.5 0.00 0.00 0.00 91 1006.2
20260831084006 22 355 9.7 22.5 0.00 0.00 0.00 92 1006.2
20260831083503 22 346 11.3 24.1 0.00 0.00 0.00 92 1006.1
20260831083005 22 348 12.9 24.1 0.00 0.00 0.00 92 1006.1
20260831082504 22 325 11.3 24.1 0.00 0.00 0.00 92 1006.1
20260831081504 22 314 12.9 25.7 0.00 0.00 0.00 92 1005.9
20260831081004 21 328 12.9 20.9 0.00 0.00 0.00 92 1005.8
20260831080505 21 324 11.3 25.7 0.00 0.00 0.00 92 1005.8
20260831080004 21 319 14.5 25.7 0.00 0.00 0.00 91 1005.6
20260831075503 21 321 12.9 20.9 0.00 0.00 0.00 91 1005.6
20260831075004 20 311 9.7 19.3 0.00 0.00 0.00 89 1005.5
20260831074503 20 307 12.9 19.3 0.00 0.00 0.00 87 1005.5
20260831073503 20 276 4.8 8.0 0.00 0.00 0.00 86 1004.9
20260831073004 20 300 4.8 8.0 0.00 0.00 0.00 86 1004.8
20260831072504 20 279 3.2 8.0 0.00 0.00 0.00 86 1004.8
20260831071504 20 242 3.2 4.8 0.00 0.00 0.00 85 1004.7
20260831071004 20 242 3.2 4.8 0.00 0.00 0.00 85 1004.7
20260831070504 20 242 3.2 4.8 0.00 0.00 0.00 85 1004.8
20260831070003 21 242 1.6 4.8 0.00 0.00 0.00 85 1004.8
20260831065505 21 169 3.2 4.8 0.00 0.00 0.00 84 1004.8
20260831065004 21 240 4.8 8.0 0.00 0.00 0.00 85 1004.7
20260831064504 21 224 4.8 8.0 0.00 0.00 0.00 84 1004.8
20260831064004 21 182 8.0 8.0 0.00 0.00 0.00 82 1004.4
20260831063504 22 248 4.8 4.8 0.00 0.00 0.00 81 1004.5
20260831063004 22 248 4.8 4.8 0.00 0.00 0.00 80 1004.5
20260831062503 22 248 4.8 8.0 0.00 0.00 0.00 81 1004.5
20260831062004 22 248 4.8 14.5 0.00 0.00 0.00 80 1004.6
20260831061504 22 246 9.7 14.5 0.00 0.00 0.00 80 1004.7
20260831061005 22 229 9.7 25.7 0.00 0.00 0.00 80 1004.9
20260831060503 22 256 9.7 25.7 0.00 0.00 0.00 81 1004.9
20260831060004 22 217 11.3 14.5 0.00 0.00 0.00 82 1004.7
20260831055504 22 214 11.3 14.5 0.00 0.00 0.00 82 1004.6
20260831054506 22 169 9.7 19.3 0.00 0.00 0.00 82 1004.0
20260831053504 22 168 11.3 14.5 0.00 0.00 0.00 82 1004.1
20260831052503 22 165 9.7 12.9 0.00 0.00 0.00 81 1004.1
20260831052004 22 164 9.7 12.9 0.00 0.00 0.00 80 1004.2
20260831051504 23 166 8.0 11.3 0.00 0.00 0.00 80 1004.1
20260831051005 23 154 8.0 11.3 0.00 0.00 0.00 80 1004.2
20260831050504 23 159 8.0 11.3 0.00 0.00 0.00 79 1004.1
20260831045504 23 158 9.7 11.3 0.00 0.00 0.00 79 1004.1
20260831045005 23 167 8.0 11.3 0.00 0.00 0.00 79 1004.1
20260831044504 23 151 8.0 11.3 0.00 0.00 0.00 79 1004.2
20260831044004 22 157 8.0 11.3 0.00 0.00 0.00 79 1004.2
20260831043504 22 159 8.0 11.3 0.00 0.00 0.00 78 1004.3
20260831043005 22 152 6.4 11.3 0.00 0.00 0.00 76 1004.2
20260831042504 22 145 9.7 12.9 0.00 0.00 0.00 75 1004.1
20260831042004 22 142 6.4 12.9 0.00 0.00 0.00 75 1004.1
20260831041503 22 160 8.0 12.9 0.00 0.00 0.00 75 1004.2
20260831041005 22 166 8.0 12.9 0.00 0.00 0.00 75 1004.2
20260831040504 22 157 4.8 11.3 0.00 0.00 0.00 75 1004.1
20260831040004 22 148 4.8 11.3 0.00 0.00 0.00 75 1004.1
20260831035504 22 167 9.7 11.3 0.00 0.00 0.00 75 1004.2
20260831035005 22 172 9.7 11.3 0.00 0.00 0.00 75 1004.2
20260831034504 22 176 9.7 11.3 0.00 0.00 0.00 75 1004.1
20260831033504 22 175 9.7 12.9 0.00 0.00 0.00 75 1004.0
20260831033004 22 181 9.7 12.9 0.00 0.00 0.00 75 1004.0
20260831032504 22 175 9.7 12.9 0.00 0.00 0.00 75 1003.9
20260831032004 22 174 11.3 11.3 0.00 0.00 0.00 75 1003.9
20260831031505 22 177 8.0 11.3 0.00 0.00 0.00 75 1003.9
20260831030503 22 181 9.7 12.9 0.00 0.00 0.00 74 1003.9
20260831030004 23 186 9.7 12.9 0.00 0.00 0.00 73 1003.9
20260831025505 23 185 11.3 12.9 0.00 0.00 0.00 72 1003.9